Regional Weather Roundup
Issued by NWS

Home | Current Version | Previous Version | Graphics & Text | Print | Product List | Glossary On
Versions: 1 2 3 4 5 6 7 8 9 10 11 12 13 14 15 16 17 18 19 20 21 22 23 24 25 26 27 28 29 30 31 32 33 34 35 36 37 38 39 40 41 42 43 44 45 46 47 48 49 50
000
ASUS43 KLOT 030208
RWRIL

ILLINOIS REGIONAL WEATHER ROUNDUP
NATIONAL WEATHER SERVICE CHICAGO/ROMEOVILLE IL
900 PM CDT MON MAY 02 2016

NOTE: "FAIR" INDICATES FEW OR NO CLOUDS BELOW 12,000 FEET WITH NO
SIGNIFICANT WEATHER AND/OR OBSTRUCTIONS TO VISIBILITY.

* THESE STATIONS ARE NOT UNDER NWS QUALITY CONTROL. THEY ALSO MAY NOT
  REPORT WEATHER SUCH AS PRECIPITATION OR FOG.

ILZ001-002-007-009-015-016-024-030300-
NORTHWEST ILLINOIS

CITY           SKY/WX    TMP DP  RH WIND       PRES   REMARKS
MOLINE         CLOUDY    54  45  71 W5        30.02F
STERLING*      CLOUDY    54  45  71 CALM      30.02F
SAVANNA*       CLOUDY    54  42  63 CALM      30.02S
$$

ILZ003-004-008-010-011-017-018-030300-
NORTH CENTRAL ILLINOIS

CITY           SKY/WX    TMP DP  RH WIND       PRES   REMARKS
ROCKFORD       PTCLDY    55  39  54 CALM      30.04S
FREEPORT*      PTCLDY    51  42  70 CALM      30.04S
ROCHELLE*      MOCLDY    50  41  69 E6        30.03S
DE KALB*       CLEAR     49  37  61 NE6       30.03S
$$

ILZ005-006-012>014-019>023-030300-
NORTHEAST ILLINOIS

CITY           SKY/WX    TMP DP  RH WIND       PRES   REMARKS
CHICAGO-OHARE  PTCLDY    50  33  52 N6        30.01S
CHICAGO-MIDWAY PTCLDY    51  32  48 N6        30.02S
AURORA         CLEAR     49  35  58 NE5       30.02S
LANSING*       CLOUDY    48  36  64 NE6       30.02S
JOLIET*        CLEAR     51  39  64 NE3       30.02R
WAUKEGAN       PTCLDY    43  37  79 CALM      30.02S
DUPAGE AIRPORT CLEAR     48  30  49 N5        30.01S
KANKAKEE*      CLOUDY    50  38  64 NE7       30.02S
WHEELING       CLEAR     46  34  62 VRB3      30.03F
MORRIS*        PTCLDY    50  40  69 CALM      30.01R
ROMEOVILLE*    CLEAR     50  35  56 E7        30.02R
NORTHERLY ISL    N/A     47  36  65 N7          N/A
NORTHERLY ISL    N/A     47  36  65 N7          N/A
$$

LMZ740>746-030300-
SOUTHERN LAKE MICHIGAN

STATION/POSITION SKY/WX   TEMP    WIND        PRES    VSBY  WAVE
                          AIR SEA DIR/SP/G                  HT/PER
                          (F)     (DEG/KT/KT) (MB)    (MI)  (FT/S)
SOUTHERN BUOY              42 41  310/  6/  8 1016.3F         1/ 4
HARRISON CRIB              46     360/  5/  6   N/A
BURNHAM HARBOR             46      10/  5/  8   N/A
CALUMET HARBOR             46                 1016.2S
BURNS HARBOR               47      40/  7/  9 1016.9F
MICHIGAN CITY              46      20/  5/  5   N/A
ST. JOSEPH                 46 48                N/A           1/ 3
$$

ILZ025>027-034>036-040-047-049-050-058-095>099-030300-
WEST-CENTRAL ILLINOIS

CITY           SKY/WX    TMP DP  RH WIND       PRES   REMARKS
QUINCY         CLOUDY    50  48  93 NW3       30.03S
GALESBURG*     CLOUDY    52  46  82 NW5         N/A
MACOMB*        CLOUDY    51  49  90 NW7       30.05S
JACKSONVILLE*  CLOUDY    53  48  83 NW5       30.02S
PITTSFIELD*    CLOUDY    52  50  92 NW3       30.04S
$$

ILZ028>032-037-038-041>044-048-051>054-059>061-030300-
CENTRAL ILLINOIS

CITY           SKY/WX    TMP DP  RH WIND       PRES   REMARKS
PONTIAC        CLEAR     49  44  81 NE7       30.02R
BLOOMINGTON    MOCLDY    51  46  83 NE5       30.02R
DECATUR        CLOUDY    54  46  74 NW7       30.00S
PEORIA         CLOUDY    54  45  71 NW5       30.01S
LACON*         PTCLDY    50  40  69 E3        30.01R
LINCOLN*       CLOUDY    54  49  83 CALM      30.01R
SPRINGFIELD    CLOUDY    54  48  80 NW6       30.01S
TAYLORVILLE    CLOUDY    53  48  84 NW6       30.01S
$$

ILZ033-039-045-046-055>057-062-063-030300-
EAST-CENTRAL ILLINOIS

CITY           SKY/WX    TMP DP  RH WIND       PRES   REMARKS
CHAMPAIGN      PTCLDY    49  44  83 N6        29.99R
RANTOUL*       PTCLDY    52  47  83 NE7       29.99S
MATTOON        CLOUDY    54  48  80 NW5       29.98R
PARIS*         CLOUDY    53  51  94 CALM      29.99S
$$

ILZ079-100>102-030300-
SOUTHWEST ILLINOIS

CITY           SKY/WX    TMP DP  RH WIND       PRES   REMARKS
ALTON          CLOUDY    52  48  87 NW7       30.02S
CAHOKIA*       CLOUDY    55  48  77 N9        30.02R
SPARTA*        CLOUDY    54  49  83 NW5       30.02R
$$

ILZ064>066-069>071-074>076-080>082-084>086-088>090-092>094-030300-
SOUTH-CENTRAL ILLINOIS

CITY           SKY/WX    TMP DP  RH WIND       PRES   REMARKS
CARBONDALE     CLEAR     53  47  79 N6        30.00R
CAIRO*         CLOUDY    58  50  75 N3        30.00R
EFFINGHAM*     CLOUDY    55  51  87 NW7       30.01R
MARION         CLOUDY    57  50  77 N3        30.00R
MT. VERNON     MOCLDY    54  46  76 CALM      30.00S
CENTRALIA*     CLOUDY    56  50  82 N7        29.99S
SALEM*         CLOUDY    55  50  83 N5        30.00S
METROPOLIS*    CLEAR     56  51  85 CALM      30.01R
$$

ILZ067-068-072-073-078-083-087-091-030300-
SOUTHEAST ILLINOIS

CITY           SKY/WX    TMP DP  RH WIND       PRES   REMARKS
LAWRENCEVILLE  CLOUDY    55  50  83 N5        29.98S
FLORA*         CLOUDY    55  50  82 NW5       29.99S
FAIRFIELD*     CLOUDY    55  50  81 NW3       29.99S
HARRISBURG*    MOCLDY    55  50  82 CALM      30.00R
ROBINSON*      LGT RAIN  53  51  92 CALM      29.99S
CARMI*         CLOUDY    56  50  80 N7        29.99R
$$

ABBREVIATIONS USED IN REMARKS
   TC - TEMPERATURE IN CELSIUS
  WCI - WIND CHILL INDEX
   HX - HEAT INDEX
  VSB - VISIBILITY
$$




USA.gov is the U.S. government's official web portal to all federal, state and local government web resources and services.